RH
24 23 23 23 22 22 22 22 21 21 20 20 20 19 19 19 19 19 19 19 19 19 19 19 19 18 18 18 18 17 17 17 17 16 16 16 17 17 17 17 16 16 16 15 15 14 14 13 13 13 12 12 12 11 11 11 10 10 9 9 9 8 8 8 8 7 7 7 7 6 6 6 6 6 5 5 5 5 4 4 4 3 4 4 6 8
25 25 24 24 23 23 23 22 22 22 21 20 20 20 19 19 19 19 19 19 19 19 19 19 19 19 19 19 18 18 18 17 17 17 16 16 16 16 16 16 16 16 16 16 16 16 15 15 14 14 13 13 12 12 12 11 11 11 10 10 10 9 9 8 8 8 8 7 7 7 7 6 6 6 6 6 6 5 5 5 4 4 4 3 4 4
27 26 25 25 24 24 23 23 23 22 22 21 20 20 19 19 19 18 18 18 18 18 18 19 19 19 19 19 19 18 18 18 18 17 17 16 16 16 15 15 15 15 16 16 16 16 16 16 15 15 14 14 13 13 13 12 12 12 11 11 10 10 10 9 9 8 8 8 8 7 7 7 7 7 6 6 6 6 5 5 5 4 4 4 3 3
28 28 27 26 25 25 24 24 23 23 22 22 21 20 20 19 18 18 18 18 17 18 17 18 18 18 19 19 19 19 19 18 18 18 17 17 17 16 16 16 15 15 15 15 15 15 15 16 16 16 15 15 14 14 13 13 13 12 12 12 11 11 11 10 10 9 9 9 8 8 8 8 7 7 7 6 6 6 6 5 5 5 5 4 4 4
30 29 28 27 27 26 25 25 24 23 23 22 22 21 20 20 19 18 18 17 17 17 17 17 17 18 18 18 18 19 19 19 18 18 18 18 17 17 16 16 16 15 15 15 15 15 15 15 15 15 15 15 15 15 15 14 14 13 13 12 12 12 11 11 11 10 10 9 9 9 8 8 8 7 7 7 7 6 6 6 6 5 5 5 4 4
31 31 30 29 28 27 26 25 25 24 24 23 22 22 21 20 20 19 18 18 17 17 16 17 17 17 17 18 18 18 19 19 18 19 18 18 18 17 17 17 16 16 15 15 15 14 14 14 14 14 14 15 15 15 15 15 15 14 14 13 13 12 12 12 11 11 11 10 10 9 9 9 8 8 8 7 7 7 7 6 6 6 5 5 5 5
33 32 31 30 29 28 27 26 25 25 24 24 23 23 22 21 21 20 19 18 17 17 17 17 17 17 17 17 18 18 18 18 19 18 19 18 18 18 17 17 17 16 16 16 15 15 14 14 14 14 14 14 14 14 14 15 15 15 15 14 14 13 13 12 12 12 11 11 11 10 10 9 9 9 8 8 8 7 7 7 7 6 6 6 5 5
34 33 32 31 30 28 27 27 26 25 25 25 24 24 23 22 22 21 20 19 18 18 17 17 17 17 17 17 17 17 18 18 18 18 19 18 18 18 18 17 17 17 16 16 15 15 15 14 14 14 14 13 13 13 13 13 14 14 14 14 14 14 14 13 13 12 12 12 11 11 11 10 10 9 9 9 8 8 8 7 7 7 7 6 6 6
34 33 32 31 30 29 28 27 26 26 25 25 24 24 24 23 22 22 21 20 20 19 18 17 17 17 17 17 17 17 17 18 18 18 18 18 18 18 18 18 17 17 16 16 16 15 15 15 14 14 14 13 13 13 13 13 13 13 13 13 14 14 14 14 14 13 12 12 12 11 11 11 10 10 10 9 9 8 8 8 7 7 7 7 6 6
33 33 32 31 30 29 28 27 27 26 25 24 24 24 24 23 23 23 22 21 21 20 19 18 18 17 17 17 17 17 17 17 18 18 18 18 18 18 18 18 18 17 17 16 16 16 15 15 15 14 14 13 13 13 13 13 12 12 12 12 13 13 13 13 14 13 13 13 12 12 11 11 11 11 10 10 9 9 9 9 8 8 8 7 7 7
33 33 32 31 30 29 28 28 27 26 25 24 24 23 23 23 23 23 23 22 22 21 20 20 19 18 17 17 17 17 17 17 18 18 18 18 18 18 18 18 18 17 17 17 16 16 16 15 15 15 14 14 14 13 13 13 13 12 12 12 12 12 12 12 13 13 13 14 13 13 12 12 11 11 11 10 10 10 9 9 9 8 8 8 7 7
33 32 31 31 30 29 28 27 26 26 25 24 24 23 22 23 22 22 22 22 22 21 21 20 20 19 18 18 17 17 17 17 17 17 18 18 18 18 18 18 18 18 17 17 17 16 16 16 15 15 15 15 14 14 13 13 13 13 12 12 12 12 12 12 12 12 12 13 13 13 13 13 12 12 11 11 11 10 10 10 9 9 8 8 8 8
32 32 31 30 30 29 28 27 26 25 25 24 24 23 23 22 22 22 22 21 21 21 21 21 20 20 19 19 18 18 18 17 17 17 17 17 17 17 17 17 17 17 17 17 17 17 16 16 16 16 15 15 15 14 14 14 13 13 13 12 12 12 12 12 12 12 12 12 12 13 13 13 13 13 12 12 11 11 10 10 10 9 9 9 8 8
32 31 31 30 30 29 28 27 26 26 25 24 23 23 23 22 21 21 21 21 21 21 21 21 21 20 20 19 19 19 18 18 18 17 17 17 17 17 17 17 17 17 17 16 16 16 16 16 16 15 15 15 15 15 14 14 14 13 13 13 12 12 12 12 12 12 12 12 12 12 12 13 13 13 13 13 12 11 11 11 10 10 10 9 9 9
32 31 31 30 30 29 28 27 26 26 25 24 23 23 22 21 21 21 21 21 21 21 21 21 21 21 21 20 20 19 19 18 18 18 17 17 17 17 16 16 16 16 16 15 15 15 15 15 15 15 15 15 14 14 14 14 14 13 13 13 13 12 12 12 12 12 12 11 12 12 12 12 12 13 13 13 13 13 12 11 11 11 10 10 10 9
32 32 31 30 30 29 28 27 27 26 25 24 23 23 22 21 21 21 21 21 20 20 20 21 21 21 21 21 20 20 19 19 18 18 18 17 17 17 16 16 15 15 15 15 14 14 14 14 14 14 14 14 14 14 13 13 13 13 13 13 12 12 12 12 12 11 11 11 11 11 11 12 12 12 12 13 13 13 13 13 12 12 11 11 10 10
33 32 31 31 30 29 28 27 26 26 25 24 23 23 22 22 21 21 20 20 20 20 20 20 20 21 21 21 21 20 19 19 18 18 18 18 17 17 16 16 15 15 15 14 14 14 13 13 13 13 13 13 13 13 13 13 13 13 12 12 12 12 12 11 11 11 11 11 11 11 11 11 11 11 12 12 12 13 13 13 13 13 12 12 11 11
34 32 32 31 31 30 29 28 27 26 25 24 23 23 22 21 21 20 20 20 20 20 20 19 19 20 20 21 21 20 20 19 19 18 18 18 18 17 17 16 16 15 15 14 14 14 13 13 13 12 12 12 12 12 12 12 12 12 12 12 12 12 11 11 11 10 10 10 10 10 10 10 10 10 11 11 11 12 12 13 13 13 13 13 12 12
34 33 32 32 31 30 29 28 27 26 25 24 24 23 22 22 21 21 20 20 20 20 19 20 19 19 20 20 21 20 20 19 19 19 18 18 18 18 17 17 16 16 15 15 15 14 14 13 13 12 12 12 12 12 12 12 12 12 12 12 11 11 11 11 10 10 10 10 9 9 9 9 9 10 10 10 10 11 11 12 12 13 13 13 13 13
35 33 32 32 31 30 30 28 27 26 25 24 24 23 23 22 21 21 21 20 20 20 19 19 19 20 20 20 20 20 20 20 19 19 18 18 18 18 18 17 16 16 16 15 15 14 14 13 13 12 12 12 11 11 11 11 11 11 11 11 11 11 11 10 10 10 10 9 9 9 9 9 9 9 9 9 9 10 10 10 11 11 12 13 13 13
36 34 33 32 31 31 30 29 28 26 25 25 24 23 23 22 22 21 21 21 20 20 19 20 20 20 20 20 21 21 20 20 19 19 18 18 18 18 18 17 17 16 16 16 15 15 14 14 13 13 12 12 12 12 11 11 11 11 11 11 11 10 10 10 10 9 9 9 9 9 9 8 8 8 8 8 8 9 9 9 10 10 11 11 12 13
37 35 33 33 32 31 31 29 28 27 26 25 25 24 23 23 22 22 21 21 20 20 20 20 20 20 20 21 21 21 20 20 20 19 18 18 18 18 18 18 17 17 16 16 16 15 15 14 14 14 13 13 12 12 12 12 11 11 11 11 10 10 10 10 10 10 9 9 9 9 9 8 8 8 8 8 8 8 8 9 9 9 10 10 11 11
37 36 35 34 33 32 31 30 29 28 27 26 25 24 24 23 23 22 22 21 21 20 20 20 20 20 21 21 21 21 21 21 20 20 19 19 18 18 18 18 18 17 17 17 16 16 15 15 14 14 14 13 13 13 12 12 12 11 11 11 10 10 10 10 10 10 9 9 9 9 9 9 9 8 8 8 8 8 8 8 8 8 9 9 10 10
38 37 36 35 34 33 32 31 30 29 27 27 26 25 24 23 23 23 22 21 21 20 20 20 20 21 21 21 22 21 21 21 21 20 20 19 19 18 18 18 18 18 17 17 17 16 16 15 15 15 14 14 14 13 13 13 12 12 11 11 11 11 10 10 10 10 9 9 9 9 9 9 9 9 9 8 8 8 8 8 8 8 8 8 9 9
39 38 37 35 34 33 32 31 30 29 28 27 26 25 24 24 23 23 22 22 21 21 20 20 21 21 21 21 22 22 22 22 21 21 20 20 19 19 19 19 18 18 17 17 17 17 16 16 16 15 15 15 14 14 13 13 13 12 12 11 11 11 11 10 10 10 10 10 9 9 9 9 9 9 9 9 8 8 8 8 8 8 8 8 8 9
39 38 37 36 35 33 32 31 30 29 28 27 26 26 25 24 24 23 23 22 21 21 21 21 21 21 21 22 22 22 22 22 22 21 21 21 20 19 19 19 19 18 17 17 17 17 17 17 16 16 16 15 15 14 14 14 13 13 12 12 12 11 11 11 10 10 10 10 10 10 9 9 9 9 9 9 9 8 8 8 8 8 8 8 8 8
39 38 37 35 34 33 32 31 30 29 28 27 27 26 25 25 24 23 23 22 22 22 22 22 22 21 21 22 22 22 23 23 22 22 22 22 21 20 20 20 19 19 18 17 17 17 17 17 17 16 16 16 15 15 14 14 13 13 13 12 12 11 11 11 11 10 10 10 10 10 10 10 9 9 9 9 9 9 8 8 8 8 8 8 8 8
39 37 36 35 34 32 31 30 29 29 28 27 27 26 25 25 24 24 23 23 22 22 22 23 22 22 22 22 22 22 23 23 23 23 23 23 23 22 21 20 20 19 19 18 17 17 17 17 17 17 17 16 16 15 15 14 14 13 13 12 12 12 11 11 11 11 11 11 10 10 10 10 10 9 10 9 9 9 9 8 8 8 8 8 8 8
38 36 35 34 33 31 30 30 29 28 28 27 27 26 26 25 25 25 24 24 24 23 23 23 23 23 23 22 22 22 23 24 24 24 24 24 23 23 21 21 20 20 20 19 18 18 17 17 17 17 17 16 16 15 15 14 14 13 13 13 12 12 11 11 11 11 11 11 11 10 10 10 10 10 10 10 9 9 9 9 8 8 8 8 8 8
36 35 33 32 31 30 30 29 29 28 28 27 27 26 26 26 26 26 25 25 25 24 24 24 24 24 24 23 23 23 23 25 25 25 25 24 24 23 22 21 21 21 21 20 20 20 19 18 18 18 17 17 16 15 15 14 14 14 13 13 12 12 11 11 11 11 11 11 11 10 10 10 10 10 10 10 10 9 9 9 9 9 9 8 8 8
34 33 32 31 30 30 29 29 29 28 28 28 28 27 27 27 27 27 26 27 26 26 25 25 25 25 24 25 25 25 25 25 26 25 24 24 24 23 22 21 21 21 22 21 22 24 23 20 18 18 17 16 15 15 14 14 14 13 13 13 12 12 11 11 11 11 10 10 10 10 10 10 10 10 10 10 10 10 10 9 9 9 9 9 9 9
33 32 31 30 30 30 29 29 29 29 29 29 29 29 28 28 28 28 28 28 27 27 27 26 26 26 26 26 26 26 25 25 25 25 24 24 24 24 23 22 21 21 22 21 22 24 25 22 20 18 17 16 15 15 14 14 13 13 13 12 12 12 11 11 11 11 11 11 10 10 10 10 10 10 10 10 10 10 10 10 10 10 10 10 9 9
32 31 30 30 30 30 30 30 31 31 31 31 31 31 30 30 30 30 29 29 29 29 29 28 28 27 27 27 27 26 26 26 25 25 25 25 25 25 24 22 21 21 21 21 22 23 24 23 21 19 17 16 15 15 14 14 13 13 12 12 12 11 11 11 11 11 11 10 10 10 10 10 10 10 11 11 11 11 11 11 11 11 11 10 10 10
32 32 31 32 32 32 32 33 33 33 34 34 33 33 33 32 32 32 31 31 31 30 30 30 30 29 29 29 28 27 26 26 26 26 25 25 25 25 24 22 21 21 21 21 21 22 22 22 22 21 19 18 16 15 14 14 13 13 12 12 12 11 11 11 11 11 10 10 10 10 10 10 10 11 11 11 11 11 11 12 12 12 12 12 11 11
34 33 33 34 34 35 35 36 36 36 36 36 36 35 35 35 34 34 33 33 33 32 32 32 31 31 31 30 29 29 28 27 27 26 26 26 25 25 24 23 22 22 22 22 23 23 24 23 23 23 22 19 18 16 15 14 14 13 12 12 11 11 11 11 11 10 10 10 10 10 10 10 10 11 11 11 11 12 12 12 12 12 13 12 12 12
36 36 37 38 38 39 39 40 40 40 40 39 38 38 37 37 37 36 36 35 35 34 34 33 32 32 32 31 30 30 29 28 27 27 26 25 25 24 23 23 23 22 22 23 24 25 25 24 23 23 23 21 19 17 16 15 14 13 12 12 11 11 11 11 10 10 10 10 10 10 10 10 10 11 11 11 12 12 12 13 13 13 13 13 13 13
40 40 41 42 42 43 43 43 43 43 43 42 41 40 40 39 39 38 38 37 37 36 35 34 33 33 32 31 31 30 29 29 28 27 26 25 25 24 23 23 22 22 21 22 23 24 25 25 24 23 23 22 21 19 16 15 14 13 12 12 11 11 11 11 10 10 10 10 10 10 10 10 10 10 10 11 11 12 12 13 13 14 14 14 14 14
44 45 45 46 46 46 46 46 46 45 45 44 43 43 42 41 41 40 39 38 37 37 36 35 34 33 32 32 31 30 29 29 28 27 26 25 24 23 23 22 22 22 21 21 21 23 24 24 24 23 22 21 20 18 17 16 15 14 13 13 12 12 11 11 11 11 11 10 10 10 10 10 10 10 10 10 11 11 11 12 13 13 14 14 14 14
48 49 49 49 49 49 48 48 47 47 46 45 44 44 43 42 41 40 39 38 37 36 36 35 34 33 32 31 31 30 29 28 27 26 26 25 24 24 23 23 22 21 21 21 21 22 23 24 24 24 23 21 20 18 17 17 16 16 15 14 14 13 13 12 12 12 11 11 11 11 11 11 11 10 10 10 10 11 11 11 12 13 13 14 14 15
51 51 51 51 51 50 50 49 48 47 46 45 44 43 42 41 40 39 38 37 36 35 34 34 33 32 31 30 29 29 28 27 26 26 25 25 25 24 24 23 22 22 21 21 21 22 22 23 23 23 24 23 21 20 18 18 18 18 18 18 17 16 14 13 13 12 12 12 12 12 12 12 11 11 11 11 11 11 11 11 12 12 13 13 14 14
53 53 52 52 51 50 49 48 47 46 45 44 43 42 41 39 38 37 36 35 34 33 32 32 31 30 29 29 28 27 26 26 25 25 25 25 25 24 24 23 23 22 22 21 21 22 22 22 22 22 23 23 22 21 20 20 20 20 20 20 20 18 16 14 14 13 14 14 14 14 14 13 13 13 13 13 12 12 12 12 12 12 12 13 13 14
54 53 52 52 51 49 48 46 45 44 43 41 40 39 38 37 36 35 34 33 32 31 30 30 29 28 28 27 27 26 25 25 25 25 25 24 24 24 24 24 23 23 23 23 23 23 23 23 23 23 23 24 24 23 22 21 21 21 21 22 21 20 17 16 15 15 15 15 15 15 15 15 15 15 15 14 14 13 13 13 13 12 12 13 13 13
53 51 50 49 48 46 45 43 42 41 40 39 38 37 36 35 33 33 32 31 30 29 28 28 28 27 27 26 26 25 25 25 24 24 24 24 24 25 25 25 25 25 25 25 25 25 25 25 25 24 24 25 26 26 25 24 22 21 21 22 23 23 21 18 17 16 16 15 16 16 16 16 16 16 16 15 15 14 14 13 13 13 13 13 13 13
49 48 47 45 44 43 42 41 40 40 39 38 37 36 34 33 31 30 30 29 28 28 27 27 27 27 26 26 25 25 24 24 24 24 24 24 25 25 26 26 26 27 27 27 27 27 27 27 26 26 25 26 27 27 27 26 24 22 20 20 22 22 21 19 18 17 15 15 15 16 16 16 17 17 16 16 15 14 14 14 13 13 13 13 13 13
46 45 44 43 42 41 40 40 39 39 38 36 35 34 32 31 30 29 29 28 27 27 27 27 27 27 26 25 25 25 24 24 24 24 25 25 25 26 27 27 27 28 28 28 28 28 29 28 27 27 27 28 28 28 27 25 23 21 19 19 19 19 18 17 17 16 16 15 14 15 15 16 17 17 16 15 15 14 14 13 13 13 13 13 13 13
43 42 41 41 40 39 38 38 38 38 37 35 34 33 31 30 29 29 28 28 27 27 27 28 28 27 27 26 25 25 25 24 24 24 25 25 26 27 27 28 28 28 29 29 29 29 29 28 28 27 28 28 28 27 25 23 21 19 17 17 17 17 16 15 15 15 15 14 14 14 15 16 17 17 17 16 16 15 13 13 13 12 12 12 12 13
42 41 40 40 39 39 39 39 38 37 36 35 33 32 31 30 29 29 28 28 27 27 26 27 28 28 27 27 26 26 26 25 25 25 25 26 26 26 27 28 28 28 29 29 29 29 29 28 27 27 28 28 27 24 22 20 19 17 16 16 17 17 16 15 15 15 15 14 14 15 16 18 18 18 18 18 17 16 14 13 12 12 12 12 12 12
41 41 40 40 40 40 39 39 38 37 35 34 33 32 31 30 29 29 28 28 28 28 27 27 27 28 28 27 27 27 27 27 26 26 26 26 25 26 26 27 27 28 28 29 29 29 29 28 27 27 28 27 26 24 21 19 18 17 16 17 18 18 18 16 15 15 15 15 15 16 18 19 19 19 20 20 19 18 15 14 13 12 12 13 14 14
42 42 41 41 41 40 39 38 38 36 35 34 33 32 31 30 30 30 29 29 29 29 28 28 29 29 29 29 29 29 29 29 28 28 27 26 25 24 24 25 27 28 29 29 29 30 29 28 27 27 27 27 26 24 22 21 21 20 19 19 20 20 20 18 17 16 16 16 16 16 18 18 19 19 21 22 21 20 19 17 15 14 14 15 16 16
43 43 42 42 40 40 39 38 38 37 35 34 34 33 33 32 32 32 31 31 31 31 31 31 31 31 31 31 31 31 31 30 29 28 27 26 25 24 23 25 27 29 30 30 31 32 33 31 29 28 28 27 26 24 23 23 24 24 23 22 22 22 22 20 19 18 17 17 16 16 17 17 18 19 22 23 23 22 22 21 20 18 16 16 16 17
44 43 43 42 41 40 40 39 39 38 37 37 36 36 35 35 35 34 34 34 34 33 33 34 34 34 33 32 32 32 32 31 29 28 26 25 25 25 25 26 29 31 33 32 33 33 34 34 32 30 27 26 25 25 24 24 26 27 27 25 24 23 23 22 20 19 19 18 18 18 18 19 19 20 22 25 25 26 26 25 23 20 16 17 17 16